DLH8CT EGBB-EDDF

Flight info

Callsign DLH8CT
Flight time 1h 24m
Altitude 39000
Route DTY P166 BANTO P155 SIVDA P137 REDFA L620 TACHA DCT NOLRU DCT DIXAT DIXAT1A
Aircraft A319/M-SDE2E3FGILORWXYZ/HB1

Departure

Time 2026-05-07 15:19
Airport Birmingham Airport (EGBB)

Arrival

Time 2026-05-07 16:43
Airport Frankfurt Main Airport (EDDF)
Time Latitude Longitude Altitude Speed Heading
2026-05-07 14:50 52.45298 -1.73806 329 ft 0 kts 146°
2026-05-07 15:09 52.45298 -1.73807 359 ft 1 kts 146°
2026-05-07 15:09 52.45319 -1.73829 329 ft 4 kts 148°
2026-05-07 15:09 52.45342 -1.73848 327 ft 4 kts 169°
2026-05-07 15:09 52.45366 -1.73846 329 ft 4 kts 219°
2026-05-07 15:10 52.45372 -1.73837 328 ft 0 kts 235°
2026-05-07 15:14 52.45367 -1.73849 329 ft 3 kts 235°
2026-05-07 15:14 52.45345 -1.73902 330 ft 7 kts 235°
2026-05-07 15:14 52.45314 -1.73975 329 ft 8 kts 236°
2026-05-07 15:15 52.45317 -1.74064 331 ft 9 kts 296°
2026-05-07 15:15 52.45344 -1.74154 330 ft 9 kts 296°
2026-05-07 15:15 52.45373 -1.74249 330 ft 10 kts 296°
2026-05-07 15:15 52.45413 -1.74385 332 ft 17 kts 296°
2026-05-07 15:16 52.45480 -1.74582 326 ft 22 kts 313°
2026-05-07 15:16 52.45609 -1.74727 327 ft 23 kts 327°
2026-05-07 15:16 52.45739 -1.74872 327 ft 23 kts 326°
2026-05-07 15:16 52.45874 -1.75023 323 ft 24 kts 326°
2026-05-07 15:17 52.46017 -1.75183 322 ft 26 kts 326°
2026-05-07 15:17 52.46158 -1.75338 315 ft 13 kts 326°
2026-05-07 15:17 52.46220 -1.75421 313 ft 8 kts 290°
2026-05-07 15:17 52.46199 -1.75502 313 ft 8 kts 237°
2026-05-07 15:18 52.46170 -1.75573 315 ft 7 kts 236°
2026-05-07 15:18 52.46140 -1.75635 317 ft 6 kts 208°
2026-05-07 15:18 52.46102 -1.75609 317 ft 8 kts 145°
2026-05-07 15:18 52.45888 -1.75362 323 ft 75 kts 146°
2026-05-07 15:19 52.45263 -1.74667 329 ft 140 kts 145°
2026-05-07 15:19 52.44437 -1.73759 931 ft 140 kts 147°
2026-05-07 15:19 52.43613 -1.72862 1593 ft 145 kts 146°
2026-05-07 15:19 52.42710 -1.71858 2013 ft 168 kts 146°
2026-05-07 15:20 52.41679 -1.70700 2499 ft 191 kts 146°
2026-05-07 15:20 52.40533 -1.69346 2943 ft 216 kts 138°
2026-05-07 15:20 52.39421 -1.67490 3518 ft 241 kts 133°
2026-05-07 15:20 52.38280 -1.65369 4307 ft 254 kts 132°
2026-05-07 15:21 52.37127 -1.63179 5254 ft 262 kts 132°
2026-05-07 15:21 52.35918 -1.60900 6248 ft 268 kts 133°
2026-05-07 15:21 52.34682 -1.58578 7205 ft 273 kts 131°
2026-05-07 15:21 52.33675 -1.55908 8199 ft 279 kts 118°
2026-05-07 15:22 52.32804 -1.53066 9267 ft 282 kts 119°
2026-05-07 15:22 52.31972 -1.50145 10223 ft 288 kts 110°
2026-05-07 15:22 52.31739 -1.46757 10615 ft 316 kts 86°
2026-05-07 15:22 52.32037 -1.43098 11208 ft 330 kts 84°
2026-05-07 15:23 52.32348 -1.39353 12026 ft 335 kts 87°
2026-05-07 15:23 52.32490 -1.35538 12893 ft 338 kts 89°
2026-05-07 15:23 52.32614 -1.31672 13741 ft 342 kts 89°
2026-05-07 15:23 52.32729 -1.27761 14482 ft 347 kts 89°
2026-05-07 15:24 52.32837 -1.23803 15195 ft 351 kts 89°
2026-05-07 15:24 52.32941 -1.19789 15893 ft 356 kts 89°
2026-05-07 15:24 52.33045 -1.15768 16581 ft 361 kts 89°
2026-05-07 15:24 52.33153 -1.11641 17280 ft 366 kts 89°
2026-05-07 15:25 52.33261 -1.07462 17967 ft 371 kts 89°
2026-05-07 15:25 52.33369 -1.03224 18605 ft 376 kts 89°
2026-05-07 15:25 52.33478 -0.98933 19196 ft 380 kts 89°
2026-05-07 15:25 52.33585 -0.94604 19837 ft 383 kts 89°
2026-05-07 15:26 52.33692 -0.90238 20467 ft 386 kts 89°
2026-05-07 15:26 52.33800 -0.85842 21096 ft 389 kts 89°
2026-05-07 15:26 52.33907 -0.81394 21721 ft 393 kts 89°
2026-05-07 15:26 52.34013 -0.76914 22337 ft 396 kts 89°
2026-05-07 15:27 52.34118 -0.72386 22949 ft 400 kts 89°
2026-05-07 15:27 52.34222 -0.67821 23551 ft 404 kts 89°
2026-05-07 15:27 52.34326 -0.63217 24064 ft 407 kts 89°
2026-05-07 15:27 52.34431 -0.58586 24602 ft 409 kts 89°
2026-05-07 15:28 52.34533 -0.53927 25137 ft 410 kts 89°
2026-05-07 15:28 52.34632 -0.49256 25657 ft 412 kts 89°
2026-05-07 15:28 52.34727 -0.44568 26170 ft 414 kts 89°
2026-05-07 15:28 52.34822 -0.39853 26676 ft 415 kts 89°
2026-05-07 15:29 52.34916 -0.35123 27173 ft 417 kts 89°
2026-05-07 15:29 52.35007 -0.30433 27653 ft 419 kts 90°
2026-05-07 15:29 52.35096 -0.25665 28143 ft 421 kts 90°
2026-05-07 15:29 52.35186 -0.20861 28629 ft 423 kts 90°
2026-05-07 15:30 52.35276 -0.16050 29104 ft 425 kts 90°
2026-05-07 15:30 52.35363 -0.11217 29578 ft 426 kts 90°
2026-05-07 15:30 52.35447 -0.06359 30039 ft 428 kts 90°
2026-05-07 15:30 52.35528 -0.01473 30426 ft 430 kts 90°
2026-05-07 15:31 52.35518 0.03427 30801 ft 431 kts 95°
2026-05-07 15:31 52.35147 0.08296 31147 ft 432 kts 99°
2026-05-07 15:31 52.34717 0.13172 31485 ft 435 kts 99°
2026-05-07 15:31 52.34279 0.18079 31805 ft 437 kts 99°
2026-05-07 15:32 52.33838 0.23003 32222 ft 437 kts 99°
2026-05-07 15:32 52.33398 0.27907 32667 ft 436 kts 99°
2026-05-07 15:32 52.32958 0.32816 33127 ft 435 kts 99°
2026-05-07 15:32 52.32519 0.37701 33574 ft 435 kts 99°
2026-05-07 15:33 52.32077 0.42589 34029 ft 434 kts 99°
2026-05-07 15:33 52.31635 0.47475 34400 ft 434 kts 100°
2026-05-07 15:33 52.31191 0.52363 34727 ft 436 kts 99°
2026-05-07 15:33 52.30746 0.57198 35027 ft 437 kts 100°
2026-05-07 15:34 52.30290 0.62109 35312 ft 438 kts 100°
2026-05-07 15:34 52.29829 0.67038 35596 ft 439 kts 100°
2026-05-07 15:34 52.29364 0.71980 35881 ft 440 kts 100°
2026-05-07 15:34 52.28901 0.76924 36153 ft 441 kts 100°
2026-05-07 15:35 52.28435 0.81890 36415 ft 442 kts 100°
2026-05-07 15:35 52.27967 0.86858 36657 ft 444 kts 100°
2026-05-07 15:35 52.27493 0.91848 36842 ft 446 kts 100°
2026-05-07 15:35 52.27013 0.96870 37034 ft 448 kts 100°
2026-05-07 15:36 52.26055 1.06875 37082 ft 445 kts 100°
2026-05-07 15:36 52.25092 1.16849 37082 ft 444 kts 100°
2026-05-07 15:37 52.24120 1.26806 37085 ft 444 kts 101°
2026-05-07 15:37 52.23145 1.36687 37085 ft 444 kts 101°
2026-05-07 15:38 52.22148 1.46633 37092 ft 444 kts 101°
2026-05-07 15:38 52.21146 1.56579 37086 ft 444 kts 101°
2026-05-07 15:39 52.20144 1.66506 37092 ft 444 kts 101°
2026-05-07 15:39 52.19137 1.76433 37091 ft 444 kts 101°
2026-05-07 15:40 52.18115 1.86355 37093 ft 444 kts 101°
2026-05-07 15:40 52.17088 1.96200 37090 ft 444 kts 101°
2026-05-07 15:41 52.16046 2.06105 37081 ft 444 kts 101°
2026-05-07 15:41 52.14999 2.16029 37082 ft 444 kts 101°
2026-05-07 15:42 52.13948 2.25937 37084 ft 444 kts 101°
2026-05-07 15:42 52.12880 2.35853 37086 ft 444 kts 101°
2026-05-07 15:43 52.11997 2.45793 37080 ft 446 kts 92°
2026-05-07 15:43 52.12789 2.55703 37080 ft 448 kts 73°
2026-05-07 15:44 52.14643 2.65377 37080 ft 448 kts 73°
2026-05-07 15:44 52.16485 2.75086 37081 ft 448 kts 73°
2026-05-07 15:45 52.18309 2.84793 37090 ft 449 kts 73°
2026-05-07 15:45 52.20131 2.94517 37088 ft 449 kts 73°
2026-05-07 15:46 52.22854 3.09129 37084 ft 449 kts 74°
2026-05-07 15:47 52.24413 3.18978 37091 ft 448 kts 84°
2026-05-07 15:47 52.24188 3.28978 37100 ft 444 kts 103°
2026-05-07 15:48 52.22201 3.38447 37088 ft 442 kts 113°
2026-05-07 15:48 52.19959 3.47793 37076 ft 443 kts 113°
2026-05-07 15:49 52.17720 3.57132 37080 ft 443 kts 113°
2026-05-07 15:49 52.15463 3.66484 37083 ft 444 kts 113°
2026-05-07 15:50 52.13580 3.74245 37076 ft 444 kts 113°
2026-05-07 15:50 52.11303 3.83583 37082 ft 444 kts 113°
2026-05-07 15:51 52.09022 3.92916 37070 ft 444 kts 113°
2026-05-07 15:51 52.06736 4.02242 37076 ft 444 kts 113°
2026-05-07 15:52 52.04441 4.11553 37078 ft 444 kts 113°
2026-05-07 15:52 52.02129 4.20867 37074 ft 444 kts 113°
2026-05-07 15:53 51.99834 4.30108 37069 ft 444 kts 113°
2026-05-07 15:53 51.97518 4.39399 37073 ft 444 kts 114°
2026-05-07 15:54 51.95191 4.48694 37067 ft 445 kts 114°
2026-05-07 15:54 51.92854 4.57982 37068 ft 445 kts 114°
2026-05-07 15:55 51.90503 4.67258 37065 ft 446 kts 114°
2026-05-07 15:55 51.88150 4.76548 37065 ft 446 kts 114°
2026-05-07 15:56 51.85792 4.85824 37068 ft 446 kts 114°
2026-05-07 15:56 51.83419 4.95084 37065 ft 446 kts 114°
2026-05-07 15:57 51.81058 5.04273 37070 ft 446 kts 114°
2026-05-07 15:57 51.78673 5.13527 37070 ft 446 kts 114°
2026-05-07 15:58 51.76276 5.22763 37068 ft 446 kts 114°
2026-05-07 15:58 51.73876 5.31991 37058 ft 446 kts 114°
2026-05-07 15:59 51.71470 5.41216 37053 ft 446 kts 114°
2026-05-07 15:59 51.69055 5.50418 37053 ft 446 kts 114°
2026-05-07 16:00 51.66628 5.59607 37044 ft 446 kts 115°
2026-05-07 16:00 51.64204 5.68790 37042 ft 446 kts 115°
2026-05-07 16:01 51.61790 5.77905 37048 ft 446 kts 115°
2026-05-07 16:01 51.59346 5.87077 37042 ft 446 kts 115°
2026-05-07 16:02 51.56897 5.96242 37050 ft 446 kts 115°
2026-05-07 16:02 51.54438 6.05404 37050 ft 446 kts 115°
2026-05-07 16:03 51.51972 6.14545 37049 ft 446 kts 115°
2026-05-07 16:03 51.49502 6.23692 37057 ft 447 kts 114°
2026-05-07 16:04 51.47196 6.32956 37050 ft 447 kts 112°
2026-05-07 16:04 51.44977 6.42288 36974 ft 448 kts 112°
2026-05-07 16:04 51.43855 6.46944 36710 ft 448 kts 112°
2026-05-07 16:05 51.42717 6.51593 36450 ft 447 kts 112°
2026-05-07 16:05 51.41572 6.56220 36161 ft 445 kts 113°
2026-05-07 16:05 51.40428 6.60815 35620 ft 443 kts 112°
2026-05-07 16:05 51.39290 6.65382 35069 ft 441 kts 112°
2026-05-07 16:06 51.38169 6.69866 34513 ft 439 kts 112°
2026-05-07 16:06 51.37016 6.74459 33940 ft 438 kts 112°
2026-05-07 16:06 51.35902 6.78907 33365 ft 435 kts 112°
2026-05-07 16:06 51.34783 6.83378 32825 ft 431 kts 112°
2026-05-07 16:07 51.33670 6.87807 32280 ft 428 kts 112°
2026-05-07 16:07 51.32562 6.92210 31744 ft 426 kts 112°
2026-05-07 16:07 51.31456 6.96583 31224 ft 423 kts 112°
2026-05-07 16:07 51.30356 7.00926 30701 ft 421 kts 112°
2026-05-07 16:08 51.29264 7.05253 30183 ft 418 kts 112°
2026-05-07 16:08 51.28039 7.09436 29624 ft 413 kts 121°
2026-05-07 16:08 51.26388 7.13146 29150 ft 406 kts 132°
2026-05-07 16:08 51.24381 7.16266 28680 ft 400 kts 142°
2026-05-07 16:09 51.22101 7.18731 28220 ft 394 kts 153°
2026-05-07 16:09 51.19662 7.20689 27766 ft 390 kts 155°
2026-05-07 16:09 51.17283 7.22570 27337 ft 387 kts 155°
2026-05-07 16:09 51.14841 7.24509 26897 ft 384 kts 155°
2026-05-07 16:10 51.12460 7.26397 26476 ft 381 kts 155°
2026-05-07 16:10 51.10102 7.28278 26061 ft 378 kts 155°
2026-05-07 16:10 51.07771 7.30182 25639 ft 375 kts 154°
2026-05-07 16:10 51.05466 7.32089 25205 ft 372 kts 154°
2026-05-07 16:11 51.03185 7.33991 24773 ft 369 kts 154°
2026-05-07 16:11 51.00949 7.35857 24332 ft 367 kts 154°
2026-05-07 16:11 50.98696 7.37725 23901 ft 364 kts 154°
2026-05-07 16:11 50.96453 7.39575 23414 ft 363 kts 154°
2026-05-07 16:12 50.94223 7.41409 22952 ft 359 kts 155°
2026-05-07 16:12 50.92015 7.43220 22503 ft 355 kts 154°
2026-05-07 16:12 50.89826 7.45013 22061 ft 352 kts 154°
2026-05-07 16:12 50.87660 7.46781 21627 ft 349 kts 155°
2026-05-07 16:13 50.85502 7.48536 21190 ft 347 kts 155°
2026-05-07 16:13 50.83363 7.50274 20758 ft 345 kts 154°
2026-05-07 16:13 50.81239 7.52004 20337 ft 343 kts 154°
2026-05-07 16:13 50.79127 7.53729 19918 ft 341 kts 154°
2026-05-07 16:14 50.77028 7.55442 19499 ft 339 kts 154°
2026-05-07 16:14 50.74938 7.57151 19077 ft 338 kts 154°
2026-05-07 16:14 50.72856 7.58851 18670 ft 337 kts 154°
2026-05-07 16:14 50.70774 7.60544 18243 ft 336 kts 154°
2026-05-07 16:15 50.68701 7.62226 17809 ft 336 kts 154°
2026-05-07 16:15 50.66644 7.63893 17403 ft 337 kts 154°
2026-05-07 16:15 50.64564 7.65572 16998 ft 336 kts 154°
2026-05-07 16:15 50.62490 7.67247 16583 ft 334 kts 154°
2026-05-07 16:16 50.60425 7.68915 16172 ft 333 kts 154°
2026-05-07 16:16 50.58366 7.70574 15786 ft 331 kts 154°
2026-05-07 16:16 50.56322 7.72219 15408 ft 330 kts 154°
2026-05-07 16:16 50.54279 7.73862 15040 ft 328 kts 154°
2026-05-07 16:17 50.52253 7.75491 14672 ft 327 kts 154°
2026-05-07 16:17 50.50235 7.77116 14296 ft 325 kts 154°
2026-05-07 16:17 50.48224 7.78731 13933 ft 324 kts 154°
2026-05-07 16:17 50.46224 7.80334 13539 ft 322 kts 154°
2026-05-07 16:18 50.44233 7.81936 13164 ft 321 kts 153°
2026-05-07 16:18 50.42386 7.83901 12823 ft 321 kts 142°
2026-05-07 16:18 50.40645 7.86085 12498 ft 319 kts 142°
2026-05-07 16:18 50.38917 7.88238 12195 ft 315 kts 142°
2026-05-07 16:19 50.37206 7.90359 11875 ft 315 kts 142°
2026-05-07 16:19 50.35489 7.92485 11525 ft 314 kts 142°
2026-05-07 16:19 50.33778 7.94601 11197 ft 313 kts 142°
2026-05-07 16:19 50.32071 7.96709 10878 ft 312 kts 142°
2026-05-07 16:20 50.30371 7.98802 10560 ft 310 kts 142°
2026-05-07 16:20 50.28680 8.00885 10241 ft 309 kts 142°
2026-05-07 16:20 50.27016 8.02950 10001 ft 301 kts 141°
2026-05-07 16:20 50.25606 8.05305 9928 ft 293 kts 127°
2026-05-07 16:21 50.24366 8.07868 10032 ft 297 kts 128°
2026-05-07 16:21 50.23107 8.10428 10050 ft 297 kts 128°
2026-05-07 16:21 50.21844 8.12972 10052 ft 297 kts 128°
2026-05-07 16:21 50.20577 8.15520 10053 ft 297 kts 128°
2026-05-07 16:22 50.19316 8.18060 10052 ft 297 kts 128°
2026-05-07 16:22 50.18049 8.20618 10053 ft 297 kts 128°
2026-05-07 16:22 50.16807 8.23133 10058 ft 297 kts 128°
2026-05-07 16:22 50.15543 8.25683 10050 ft 297 kts 128°
2026-05-07 16:23 50.14298 8.28187 10040 ft 285 kts 128°
2026-05-07 16:23 50.13115 8.30559 10059 ft 270 kts 128°
2026-05-07 16:23 50.11980 8.32839 10051 ft 265 kts 128°
2026-05-07 16:23 50.11059 8.35303 10052 ft 264 kts 111°
2026-05-07 16:24 50.10595 8.38058 9871 ft 261 kts 95°
2026-05-07 16:24 50.10628 8.40860 9520 ft 259 kts 79°
2026-05-07 16:24 50.11122 8.43531 9176 ft 256 kts 67°
2026-05-07 16:24 50.11757 8.46121 8823 ft 255 kts 68°
2026-05-07 16:25 50.12376 8.48699 8476 ft 254 kts 68°
2026-05-07 16:25 50.12988 8.51268 8131 ft 252 kts 68°
2026-05-07 16:25 50.13596 8.53829 7783 ft 251 kts 68°
2026-05-07 16:25 50.14201 8.56377 7439 ft 250 kts 68°
2026-05-07 16:26 50.14802 8.58911 7099 ft 249 kts 68°
2026-05-07 16:26 50.15401 8.61433 6767 ft 247 kts 68°
2026-05-07 16:26 50.15996 8.63938 6438 ft 246 kts 68°
2026-05-07 16:26 50.16389 8.65594 6202 ft 245 kts 68°
2026-05-07 16:27 50.17170 8.68882 5748 ft 243 kts 68°
2026-05-07 16:27 50.17754 8.71344 5408 ft 242 kts 68°
2026-05-07 16:27 50.18336 8.73799 5084 ft 240 kts 68°
2026-05-07 16:27 50.18913 8.76226 5003 ft 239 kts 68°
2026-05-07 16:28 50.19491 8.78660 5006 ft 240 kts 68°
2026-05-07 16:28 50.20065 8.81105 5008 ft 240 kts 68°
2026-05-07 16:28 50.20639 8.83549 5011 ft 239 kts 68°
2026-05-07 16:28 50.21216 8.85993 5005 ft 240 kts 68°
2026-05-07 16:29 50.21790 8.88438 5013 ft 240 kts 68°
2026-05-07 16:29 50.22362 8.90882 5008 ft 240 kts 68°
2026-05-07 16:29 50.22935 8.93328 5008 ft 240 kts 68°
2026-05-07 16:29 50.23509 8.95771 5009 ft 240 kts 68°
2026-05-07 16:30 50.24083 8.98221 5003 ft 240 kts 68°
2026-05-07 16:30 50.24653 9.00669 5012 ft 240 kts 68°
2026-05-07 16:30 50.25223 9.03113 5010 ft 240 kts 68°
2026-05-07 16:30 50.25796 9.05562 5008 ft 240 kts 68°
2026-05-07 16:31 50.26368 9.08018 5011 ft 240 kts 68°
2026-05-07 16:31 50.26937 9.10468 5006 ft 240 kts 68°
2026-05-07 16:31 50.27506 9.12921 5009 ft 240 kts 68°
2026-05-07 16:31 50.27869 9.15423 5005 ft 242 kts 90°
2026-05-07 16:32 50.27398 9.17931 5007 ft 244 kts 123°
2026-05-07 16:32 50.26171 9.19726 5012 ft 243 kts 149°
2026-05-07 16:32 50.24688 9.21012 5012 ft 243 kts 154°
2026-05-07 16:32 50.23187 9.22229 5013 ft 243 kts 154°
2026-05-07 16:33 50.21596 9.23030 5006 ft 240 kts 180°
2026-05-07 16:33 50.20004 9.22471 5011 ft 235 kts 212°
2026-05-07 16:33 50.18880 9.20706 5009 ft 230 kts 245°
2026-05-07 16:33 50.18535 9.18319 5006 ft 227 kts 270°
2026-05-07 16:34 50.18550 9.15851 5008 ft 228 kts 274°
2026-05-07 16:34 50.18606 9.13383 5009 ft 228 kts 274°
2026-05-07 16:34 50.18670 9.10914 5009 ft 228 kts 274°
2026-05-07 16:34 50.18618 9.08451 5006 ft 230 kts 259°
2026-05-07 16:35 50.17868 9.06269 5010 ft 234 kts 226°
2026-05-07 16:35 50.16641 9.04591 5003 ft 234 kts 230°
2026-05-07 16:35 50.15981 9.02336 5015 ft 230 kts 259°
2026-05-07 16:35 50.15573 8.99926 5011 ft 230 kts 253°
2026-05-07 16:36 50.15036 8.97573 5004 ft 231 kts 251°
2026-05-07 16:36 50.14481 8.95225 5008 ft 230 kts 251°
2026-05-07 16:36 50.13947 8.92959 5007 ft 215 kts 251°
2026-05-07 16:36 50.13445 8.90820 5009 ft 205 kts 252°
2026-05-07 16:37 50.12964 8.88771 5003 ft 197 kts 252°
2026-05-07 16:37 50.12511 8.86846 5047 ft 182 kts 252°
2026-05-07 16:37 50.12087 8.85042 4895 ft 178 kts 252°
2026-05-07 16:37 50.11659 8.83220 4676 ft 176 kts 252°
2026-05-07 16:38 50.11242 8.81452 4429 ft 176 kts 252°
2026-05-07 16:38 50.10820 8.79660 4179 ft 176 kts 252°
2026-05-07 16:38 50.10398 8.77870 3920 ft 176 kts 252°
2026-05-07 16:38 50.09975 8.76082 3664 ft 176 kts 252°
2026-05-07 16:39 50.09550 8.74284 3430 ft 176 kts 252°
2026-05-07 16:39 50.09126 8.72492 3162 ft 177 kts 252°
2026-05-07 16:39 50.08703 8.70705 2901 ft 173 kts 252°
2026-05-07 16:39 50.08299 8.69003 2651 ft 162 kts 252°
2026-05-07 16:40 50.07918 8.67398 2423 ft 154 kts 251°
2026-05-07 16:40 50.07555 8.65866 2204 ft 147 kts 252°
2026-05-07 16:40 50.07205 8.64392 2002 ft 143 kts 251°
2026-05-07 16:40 50.06861 8.62944 1782 ft 142 kts 252°
2026-05-07 16:41 50.06520 8.61510 1584 ft 142 kts 252°
2026-05-07 16:41 50.06179 8.60078 1373 ft 141 kts 252°
2026-05-07 16:41 50.05841 8.58649 1153 ft 140 kts 251°
2026-05-07 16:41 50.05511 8.57252 942 ft 136 kts 250°
2026-05-07 16:42 50.05186 8.55883 753 ft 134 kts 249°
2026-05-07 16:42 50.04863 8.54535 574 ft 134 kts 249°
2026-05-07 16:42 50.04542 8.53184 385 ft 133 kts 248°
2026-05-07 16:42 50.04245 8.51952 336 ft 104 kts 249°
2026-05-07 16:43 50.04051 8.51149 328 ft 55 kts 250°
2026-05-07 16:43 50.03949 8.50722 323 ft 40 kts 249°
2026-05-07 16:43 50.03845 8.50397 321 ft 28 kts 226°
2026-05-07 16:43 50.03717 8.50219 319 ft 11 kts 219°
2026-05-07 16:44 50.03679 8.50176 320 ft 5 kts 203°
2026-05-07 16:44 50.03663 8.50176 322 ft 0 kts 175°
2026-05-07 16:44 50.03653 8.50180 323 ft 5 kts 161°
2026-05-07 16:45 50.03625 8.50270 325 ft 16 kts 78°
2026-05-07 16:45 50.03677 8.50488 328 ft 26 kts 70°
2026-05-07 16:45 50.03740 8.50752 331 ft 26 kts 70°
2026-05-07 16:45 50.03801 8.51010 333 ft 25 kts 69°
2026-05-07 16:46 50.03864 8.51268 336 ft 26 kts 70°
2026-05-07 16:46 50.03927 8.51534 333 ft 27 kts 70°
2026-05-07 16:46 50.03992 8.51803 336 ft 27 kts 69°
2026-05-07 16:46 50.04035 8.51981 337 ft 26 kts 69°
2026-05-07 16:47 50.04098 8.52246 352 ft 26 kts 70°
2026-05-07 16:47 50.04179 8.52585 353 ft 26 kts 69°
2026-05-07 16:47 50.04224 8.52771 351 ft 28 kts 69°
2026-05-07 16:47 50.04311 8.53135 358 ft 26 kts 70°
2026-05-07 16:48 50.04367 8.53374 371 ft 21 kts 70°
2026-05-07 16:48 50.04401 8.53592 375 ft 21 kts 84°
2026-05-07 16:48 50.04411 8.53745 375 ft 21 kts 84°
2026-05-07 16:48 50.04426 8.53980 375 ft 22 kts 84°
2026-05-07 16:49 50.04442 8.54226 375 ft 23 kts 83°
2026-05-07 16:49 50.04452 8.54488 369 ft 27 kts 98°
2026-05-07 16:49 50.04365 8.54722 360 ft 27 kts 139°
2026-05-07 16:49 50.04218 8.54826 355 ft 25 kts 161°
2026-05-07 16:50 50.04053 8.54920 354 ft 19 kts 159°
2026-05-07 16:50 50.03926 8.54995 352 ft 21 kts 159°
2026-05-07 16:50 50.03848 8.55051 353 ft 10 kts 129°
2026-05-07 16:50 50.03860 8.55160 353 ft 12 kts 68°
2026-05-07 16:51 50.03902 8.55332 355 ft 24 kts 69°
2026-05-07 16:51 50.03965 8.55597 350 ft 27 kts 70°
2026-05-07 16:51 50.04030 8.55873 358 ft 27 kts 69°
2026-05-07 16:51 50.04096 8.56150 355 ft 27 kts 70°
2026-05-07 16:52 50.04163 8.56427 356 ft 27 kts 69°
2026-05-07 16:52 50.04228 8.56700 363 ft 27 kts 70°
2026-05-07 16:52 50.04291 8.56966 362 ft 26 kts 69°
2026-05-07 16:52 50.04354 8.57232 361 ft 26 kts 70°
2026-05-07 16:53 50.04419 8.57503 364 ft 27 kts 69°
2026-05-07 16:53 50.04484 8.57772 365 ft 27 kts 70°
2026-05-07 16:53 50.04529 8.57958 368 ft 7 kts 69°
2026-05-07 16:53 50.04559 8.58031 368 ft 10 kts 22°
2026-05-07 16:54 50.04642 8.57997 360 ft 14 kts 338°
2026-05-07 16:54 50.04743 8.57937 360 ft 17 kts 339°
2026-05-07 16:54 50.04847 8.57842 358 ft 18 kts 291°
2026-05-07 16:54 50.04897 8.57656 360 ft 13 kts 294°
2026-05-07 16:55 50.04934 8.57533 359 ft 9 kts 295°
2026-05-07 16:55 50.04953 8.57490 356 ft 3 kts 329°
2026-05-07 16:55 50.04977 8.57499 356 ft 4 kts 23°
2026-05-07 16:55 50.05008 8.57519 359 ft 5 kts 21°
2026-05-07 16:56 50.05015 8.57523 358 ft 0 kts 21°